Location: Gouy
(50.0008°N, 3.2556°E)
Time: 11:55:37
(UTC+00:00)

Okean 2 Rocket - Pass Details

Date: 23 May 2024
Orbit: 614 x 638 km, 82.5° (Epoch: 14 June)

Event Time Altitude Azimuth Distance (km) Brightness Sun altitude
Rises 02:46:41 0° 349° (NNW) 2,897 7.1 -8.6°
Reaches altitude 10° 02:48:55 10° 348° (NNW) 1,988 6.2 -8.4°
Maximum altitude 02:53:18 80° 263° (W) 632 3.0 -7.9°
Drops below altitude 10° 02:57:42 10° 176° (S) 1,981 5.3 -7.4°
Sets 02:59:55 0° 175° (S) 2,885 6.1 -7.1°
